BREEZE-M DEB

基本信息
目录编号:
38590
目录名称:
BREEZE-M DEB
国际标识:
2008-011AM
轨道中心:
EARTH
物体状态:
在轨
发射日期:
2008-03-14 UTC
轨道信息
数据来源: 国际轨道数据
星历时间: 2026-07-08T15:27:22+0800
半长轴: 20847.28km
偏心率: 0.6251368
轨道倾角: 48.823°
近地点辐角: 335.821°
升交点赤经: 290.338°
平近点角: 4.488°
近地点: 1436.741km
远地点: 27501.545km
周期: 499.268分钟
每日圈数: 2.884222
详细信息
发射场:
TTMTR
轨道高度:
LEO
数据来源:
AOE Integration Group
参考系:
TEME
时间系统:
UTC
历元类型:
SGP4
2D轨道图
3D轨道图
轨道高度分析图
轨道倾角分析图
轨道综合分析图
查看轨道综合分析图